Погода в Поломе

Россия / Кировская область     58°21′59″N   50°20′26″E
темп.,
°C
ветер,
м/с
пор.,
м/с
влажн.,
%
обл.,
%
осадки,
мм/ч
давл.,
гПа
погр.,
м
14 апреля, ср
ср1400:00+4ююз49100100 0.0 1030208
03:00+1ю3799100 0.0 1030103
06:00+2ююз499647 0.0 1029111
09:00+4ю489888 0.0 1029128
12:00+6ю489886 0.0 1028147
15:00+7ю599782 0.0 1027177
18:00+5ююз4109976 0.0 1025157
21:00+5ююз4109180 0.0 1024130
15 апреля, чт
чт1500:00+5ююз49875 0.0 1023106
03:00+5ююз48895 0.0 102298
06:00+6ююз37935 0.0 1021109
09:00+12юз45845 0.1 1020277
12:00+15юз347672 0.6 1020764
15:00+14сз2379100 3.1 1019256
18:00+7ссв81283100 1.8 1022525
21:00+6ссв61179100 2.2 1024631
16 апреля, пт
пт1600:00+5св61272100 0.1 1025687
03:00+3св6127283 0.1 1027602
06:00+2св612705 0.0 1028575
09:00+5всв68520 0.0 1029769
12:00+8св56370 0.0 10281073
15:00+10св56340 0.0 10281236
18:00+7ссв47490 0.0 1028184
21:00+3ссв38620 0.0 1029139
17 апреля, сб
сб1700:00+2св35660 0.0 103078
03:00+1ссв33690 0.0 103030
06:00+2с25690 0.0 1031136
09:00+7с34535 0.0 1030707
12:00+9с45487 0.0 10291549
15:00+10с56435 0.0 10281543
18:00+8ссз36525 0.0 1027147
21:00+5ссз38675 0.0 1027140
18 апреля, вс
вс1800:00+3сз311765 0.0 1027239
03:00+2ссз410845 0.0 1028239
06:00+3с411825 0.0 1028694
09:00+4ссв785864 0.0 10291237
12:00+6ссв683910 0.0 10301731
15:00+6ссв67337 0.0 10311968
18:00+4ссв58395 0.0 1032636
21:00+1св37545 0.0 1034160